Weather History for Grand Forks AFB, ND

Change the Weather History Date:

Thursday, April 11, 2013

  Actual Average Record
Temperature  
Mean Temperature 29 °F -  
Max Temperature 33 °F 46 °F 71 °F (1998)
Min Temperature 25 °F 27 °F 14 °F (1997)
Degree Days  
Heating Degree Days 36    
Moisture  
Dew Point 24 °F    
Average Humidity 84    
Maximum Humidity 95    
Minimum Humidity 56    
Precipitation  
Precipitation 0.00 in - - ()
Sea Level Pressure  
Sea Level Pressure 29.98 in    
Wind  
Wind Speed 12 mph (ENE)    
Max Wind Speed 18 mph    
Max Gust Speed 23 mph    
Visibility 6 miles    
Events Fog , Snow    
Averages and records for this station are not official NWS values.
T = Trace of Precipitation, MM = Missing Value Source: NWS Daily Summary

Daily Weather History Graph

Daily Weather History Graph

Search for Another Location

Airport:

Trip Planner

Search our weather history database for the weather conditions in past years. The results will help you decide how hot, cold, wet, or windy it might be!

Date:

Astronomy

Apr. 11, 2013 Rise Set
Actual Time 6:47 AM CDT 8:14 PM CDT
Civil Twilight 6:15 AM CDT 8:46 PM CDT
Nautical Twilight 5:36 AM CDT 9:26 PM CDT
Astronomical Twilight 4:54 AM CDT 10:08 PM CDT
Moon 7:13 AM CDT (4/11) 9:58 PM CDT (4/11)
Length of Visible Light 14h 31m
Length of Day
13h 27m
New Moon, 2% of the Moon is Illuminated
Apr 11
New Moon
Apr 18
First Quarter
Apr 25
Full
May 2
Last Quarter
May 9
New

Hourly Weather History & Observations

Time (CDT) Temp. Windchill Dew Point Humidity Pressure Visibility Wind Dir Wind Speed Gust Speed Precip Events Conditions
12:55 AM 25.9 °F 18.2 °F 20.5 °F 80% 30.11 in 10.0 mi North 6.9 mph - N/A   Mostly Cloudy
1:55 AM 25.5 °F 16.9 °F 20.5 °F 81% 30.10 in 10.0 mi North 8.1 mph - N/A   Overcast
2:55 AM 25.7 °F 18.0 °F 21.0 °F 82% 30.07 in 10.0 mi North 6.9 mph - N/A   Overcast
3:55 AM 27.3 °F 18.4 °F 21.6 °F 79% 30.04 in 10.0 mi NNE 9.2 mph - N/A   Overcast
4:55 AM 29.1 °F 22.1 °F 21.0 °F 72% 30.02 in 10.0 mi ENE 6.9 mph - N/A   Overcast
5:55 AM 30.0 °F 22.4 °F 21.0 °F 69% 29.99 in 10.0 mi East 8.1 mph - N/A   Mostly Cloudy
6:55 AM 29.8 °F 20.9 °F 20.3 °F 68% 29.98 in 10.0 mi East 10.4 mph - N/A   Overcast
7:55 AM 30.4 °F 21.0 °F 19.4 °F 64% 29.98 in 10.0 mi East 11.5 mph - N/A   Mostly Cloudy
8:55 AM 31.1 °F 20.5 °F 19.0 °F 61% 29.98 in 10.0 mi East 15.0 mph - N/A   Mostly Cloudy
9:55 AM 31.1 °F 20.9 °F 18.0 °F 58% 29.98 in 10.0 mi East 13.8 mph - N/A   Clear
10:55 AM 31.8 °F 23.3 °F 18.7 °F 58% 30.00 in 10.0 mi East 10.4 mph - N/A   Mostly Cloudy
11:55 AM 31.8 °F 21.8 °F 18.7 °F 58% 30.00 in 10.0 mi East 13.8 mph - N/A   Overcast
12:55 PM 30.6 °F 20.7 °F 21.4 °F 69% 29.99 in 10.0 mi East 12.7 mph - N/A   Clear
1:55 PM 32.9 °F 23.2 °F 19.4 °F 58% 29.98 in 10.0 mi East 13.8 mph - N/A   Mostly Cloudy
2:05 PM 32.0 °F 22.1 °F 19.4 °F 60% 29.98 in 9.0 mi East 13.8 mph - N/A   Overcast
2:06 PM 32.0 °F 22.1 °F 19.4 °F 60% 29.98 in 9.0 mi East 13.8 mph - N/A   Overcast
2:14 PM 33.8 °F 24.3 °F 19.4 °F 56% 29.98 in 10.0 mi East 13.8 mph - N/A   Mostly Cloudy
2:21 PM 32.0 °F 22.5 °F 19.4 °F 60% 29.98 in 10.0 mi East 12.7 mph - N/A   Mostly Cloudy
2:32 PM 32.0 °F 20.5 °F 19.4 °F 60% 29.98 in 5.0 mi East 18.4 mph - N/A   Light Drizzle
2:35 PM 30.2 °F 18.1 °F 21.2 °F 69% 29.98 in 2.5 mi East 18.4 mph - N/A   Mostly Cloudy
2:37 PM 30.2 °F 18.9 °F 21.2 °F 69% 29.98 in 1.8 mi East 16.1 mph - N/A   Mostly Cloudy
2:39 PM 30.2 °F 18.9 °F 23.0 °F 75% 29.98 in 1.2 mi East 16.1 mph - N/A   Overcast
2:53 PM 28.4 °F 18.0 °F 24.8 °F 86% 29.98 in 1.0 mi East 12.7 mph - N/A Snow Light Snow
2:55 PM 29.1 °F 19.4 °F 24.6 °F 83% 29.98 in 1.2 mi East 11.5 mph - 0.00 in Snow Light Snow
2:57 PM 28.4 °F 16.6 °F 24.8 °F 86% 29.98 in 0.8 mi East 16.1 mph - N/A Snow Light Snow
2:58 PM 28.4 °F 17.0 °F 24.8 °F 86% 29.98 in 0.8 mi East 15.0 mph - N/A Snow Light Snow
2:59 PM 28.4 °F 16.6 °F 24.8 °F 86% 29.98 in 0.8 mi East 16.1 mph - N/A Snow Light Snow
3:08 PM 28.4 °F 17.0 °F 24.8 °F 86% 29.98 in 0.5 mi East 15.0 mph - N/A Fog , Snow Light Freezing Fog
3:10 PM 28.4 °F 18.0 °F 24.8 °F 86% 29.98 in 0.5 mi East 12.7 mph - N/A Fog , Snow Light Freezing Fog
3:11 PM 28.4 °F 18.5 °F 24.8 °F 86% 29.98 in 0.5 mi East 11.5 mph - N/A Fog , Snow Light Freezing Fog
3:31 PM 28.4 °F 17.5 °F 26.6 °F 93% 29.98 in 0.8 mi East 13.8 mph - N/A Snow Light Snow
3:39 PM 28.4 °F 17.5 °F 26.6 °F 93% 29.98 in 0.8 mi ENE 13.8 mph - N/A Snow Light Snow
3:43 PM 28.4 °F 16.6 °F 26.6 °F 93% 29.98 in 0.8 mi ENE 16.1 mph 20.7 mph N/A Snow Light Snow
3:46 PM 28.4 °F 18.0 °F 26.6 °F 93% 29.98 in 1.0 mi ENE 12.7 mph - N/A Snow Light Snow
3:47 PM 28.4 °F 17.5 °F 26.6 °F 93% 29.98 in 1.0 mi ENE 13.8 mph - N/A Snow Light Snow
3:53 PM 28.4 °F 18.0 °F 26.6 °F 93% 29.97 in 1.2 mi ENE 12.7 mph - N/A Snow Light Snow
3:55 PM 28.6 °F 17.7 °F 25.9 °F 90% 29.97 in 1.0 mi ENE 13.8 mph - 0.00 in Snow Light Snow
4:03 PM 28.4 °F 17.5 °F 26.6 °F 93% 29.97 in 1.0 mi ENE 13.8 mph - N/A Snow Light Snow
4:08 PM 28.4 °F 17.5 °F 26.6 °F 93% 29.97 in 1.0 mi ENE 13.8 mph - N/A Snow Light Snow
4:17 PM 28.4 °F 18.5 °F 26.6 °F 93% 29.97 in 1.0 mi ENE 11.5 mph - N/A Snow Light Snow
4:18 PM 28.4 °F 18.0 °F 26.6 °F 93% 29.97 in 0.8 mi ENE 12.7 mph - N/A Snow Light Snow
4:24 PM 28.4 °F 16.6 °F 26.6 °F 93% 29.97 in 0.8 mi ENE 16.1 mph - N/A Snow Light Snow
4:28 PM 28.4 °F 16.6 °F 26.6 °F 93% 29.98 in 1.0 mi ENE 16.1 mph - N/A Snow Light Snow
4:31 PM 28.4 °F 16.2 °F 26.6 °F 93% 29.97 in 1.2 mi ENE 17.3 mph - N/A Snow Light Snow
4:33 PM 28.4 °F 16.6 °F 26.6 °F 93% 29.97 in 1.5 mi ENE 16.1 mph - N/A Snow Light Snow
4:35 PM 28.4 °F 16.2 °F 26.6 °F 93% 29.97 in 2.0 mi ENE 17.3 mph - N/A Snow Light Snow
4:38 PM 28.4 °F 17.5 °F 26.6 °F 93% 29.97 in 3.0 mi ENE 13.8 mph - N/A Snow Light Snow
4:51 PM 28.4 °F 17.0 °F 26.6 °F 93% 29.97 in 3.0 mi ENE 15.0 mph - N/A Snow Light Snow
5:03 PM 28.4 °F 18.0 °F 24.8 °F 86% 29.97 in 2.5 mi ENE 12.7 mph - N/A Snow Light Snow
5:12 PM 28.4 °F 16.6 °F 24.8 °F 86% 29.97 in 3.0 mi ENE 16.1 mph 23.0 mph N/A Snow Light Snow
5:18 PM 28.4 °F 17.0 °F 24.8 °F 86% 29.97 in 4.0 mi ENE 15.0 mph 23.0 mph N/A Snow Light Snow
5:22 PM 28.4 °F 16.6 °F 24.8 °F 86% 29.97 in 4.0 mi ENE 16.1 mph - N/A Snow Light Snow
5:25 PM 28.4 °F 17.0 °F 24.8 °F 86% 29.97 in 4.0 mi ENE 15.0 mph - N/A Snow Light Snow
5:33 PM 28.4 °F 17.5 °F 24.8 °F 86% 29.97 in 4.0 mi ENE 13.8 mph - N/A   Overcast
5:38 PM 28.4 °F 17.5 °F 24.8 °F 86% 29.97 in 4.0 mi ENE 13.8 mph - N/A Snow Light Snow
5:44 PM 28.4 °F 18.0 °F 24.8 °F 86% 29.97 in 4.0 mi NE 12.7 mph - N/A Snow Light Snow
5:47 PM 28.4 °F 17.5 °F 24.8 °F 86% 29.97 in 4.0 mi ENE 13.8 mph - N/A Snow Light Snow
5:55 PM 27.7 °F 16.6 °F 25.2 °F 90% 29.97 in 3.0 mi ENE 13.8 mph - 0.00 in Snow Light Snow
5:57 PM 28.4 °F 17.5 °F 24.8 °F 86% 29.97 in 3.0 mi ENE 13.8 mph - N/A Snow Light Snow
6:00 PM 28.4 °F 18.0 °F 24.8 °F 86% 29.98 in 3.0 mi ENE 12.7 mph - N/A Snow Light Snow
6:54 PM 28.4 °F 17.0 °F 24.8 °F 86% 29.98 in 5.0 mi NE 15.0 mph - N/A Snow Light Snow
6:55 PM 27.7 °F 16.6 °F 25.3 °F 91% 29.98 in 5.0 mi NE 13.8 mph - 0.00 in Snow Light Snow
7:01 PM 28.4 °F 17.0 °F 24.8 °F 86% 29.98 in 7.0 mi NE 15.0 mph - N/A Snow Light Snow
7:06 PM 28.4 °F 17.5 °F 24.8 °F 86% 29.98 in 7.0 mi ENE 13.8 mph - N/A Snow Light Snow
7:08 PM 28.4 °F 18.0 °F 24.8 °F 86% 29.98 in 7.0 mi ENE 12.7 mph - N/A Snow Light Snow
7:10 PM 28.4 °F 18.0 °F 24.8 °F 86% 29.98 in 7.0 mi NE 12.7 mph - N/A Snow Light Snow
7:13 PM 28.4 °F 17.5 °F 24.8 °F 86% 29.98 in 7.0 mi NE 13.8 mph - N/A Snow Light Snow
7:19 PM 28.4 °F 17.5 °F 24.8 °F 86% 29.98 in 7.0 mi NE 13.8 mph - N/A Snow Light Snow
7:25 PM 28.4 °F 17.5 °F 24.8 °F 86% 29.97 in 7.0 mi NE 13.8 mph - N/A   Overcast
7:35 PM 28.4 °F 18.0 °F 24.8 °F 86% 29.98 in 9.0 mi ENE 12.7 mph - N/A   Overcast
7:37 PM 28.4 °F 18.0 °F 24.8 °F 86% 29.97 in 10.0 mi ENE 12.7 mph - N/A   Overcast
7:55 PM 27.5 °F 17.4 °F 25.5 °F 92% 29.97 in 6.0 mi NE 11.5 mph - 0.00 in   Overcast
8:34 PM 28.4 °F 18.5 °F 26.6 °F 93% 29.97 in 6.0 mi NE 11.5 mph - N/A   Overcast
8:55 PM 27.5 °F 16.8 °F 26.2 °F 95% 29.97 in 5.0 mi NE 12.7 mph - 0.00 in Snow Light Snow
9:33 PM 28.4 °F 18.0 °F 26.6 °F 93% 29.96 in 8.0 mi NE 12.7 mph - N/A   Overcast
9:54 PM 28.4 °F 18.5 °F 26.6 °F 93% 29.96 in 10.0 mi ENE 11.5 mph - N/A   Overcast
9:55 PM 27.9 °F 17.3 °F 26.2 °F 94% 29.96 in 10.0 mi ENE 12.7 mph - 0.00 in   Overcast
10:13 PM 28.4 °F 18.5 °F 26.6 °F 93% 29.96 in 10.0 mi ENE 11.5 mph - N/A   Overcast
10:16 PM 28.4 °F 18.5 °F 26.6 °F 93% 29.96 in 10.0 mi NE 11.5 mph - N/A   Overcast
10:20 PM 28.4 °F 18.5 °F 26.6 °F 93% 29.96 in 10.0 mi ENE 11.5 mph - N/A   Overcast
10:25 PM 28.4 °F 18.5 °F 26.6 °F 93% 29.96 in 10.0 mi ENE 11.5 mph - N/A   Overcast
10:33 PM 28.4 °F 19.1 °F 26.6 °F 93% 29.96 in 10.0 mi ENE 10.4 mph - N/A Snow Light Snow
10:39 PM 28.4 °F 19.1 °F 26.6 °F 93% 29.96 in 9.0 mi ENE 10.4 mph - N/A Snow Light Snow
10:45 PM 28.4 °F 18.5 °F 24.8 °F 86% 29.96 in 8.0 mi ENE 11.5 mph - N/A Snow Light Snow
10:55 PM 28.2 °F 18.9 °F 25.3 °F 89% 29.96 in 9.0 mi East 10.4 mph - 0.00 in   Overcast
11:20 PM 28.4 °F 19.1 °F 24.8 °F 86% 29.96 in 6.0 mi ENE 10.4 mph - N/A Snow Light Snow
11:48 PM 28.4 °F 19.7 °F 26.6 °F 93% 29.96 in 8.0 mi ENE 9.2 mph - N/A Snow Light Snow
11:55 PM 27.9 °F 19.1 °F 25.9 °F 92% 29.96 in 9.0 mi ENE 9.2 mph - 0.00 in Snow Light Snow